Dewpoint
41 41 42 42 42 41 38 32 21 29 40 28 27 17 23 25 24 25 25 28 28 29 29 27 28 28 30 34 33 34 34 31 25 20 26 33 20 22 20 19 19 24 20 18
41 42 42 43 42 41 39 30 28 33 36 18 24 22 28 27 25 26 25 25 27 30 29 22 28 31 34 35 35 33 34 30 25 23 27 28 29 30 27 27 24 21 21 20
41 42 43 43 42 42 37 30 22 24 31 33 29 27 25 25 28 28 27 25 25 23 26 28 25 29 34 36 36 39 36 31 27 23 25 26 26 28 30 26 23 21 21 25
42 43 44 44 43 42 36 33 23 25 20 29 28 29 27 25 25 25 28 25 28 28 25 24 27 31 31 34 36 37 36 28 30 31 33 30 27 28 27 25 23 22 23 25
42 43 44 44 44 43 35 29 23 26 27 26 26 25 25 26 24 27 27 26 27 29 27 27 27 27 30 32 36 34 36 30 32 28 30 27 25 29 29 28 28 27 25 26
42 43 44 45 44 42 36 33 31 29 23 24 22 23 25 26 25 25 29 26 27 27 30 31 30 30 31 33 32 32 32 30 27 22 28 25 22 23 27 34 36 35 28 36
42 43 44 45 44 43 37 35 31 28 20 24 23 22 24 23 23 24 25 28 28 30 37 36 34 35 34 34 34 34 31 28 27 25 24 13 30 36 35 35 36 37 36 36
42 43 44 44 45 45 39 38 33 30 18 23 22 23 23 25 25 25 26 27 30 38 37 32 28 26 27 29 33 33 34 28 25 23 22 21 31 34 35 34 35 37 37 39
41 43 44 44 45 45 43 39 39 35 26 23 24 22 23 23 25 26 27 32 35 36 33 29 24 21 23 23 27 31 32 30 26 25 21 15 26 37 38 38 31 37 36 39
41 42 43 45 45 45 43 41 39 37 30 29 28 25 25 27 27 27 28 31 30 35 28 27 24 23 24 20 23 26 28 28 25 24 23 24 32 37 38 25 26 36 38 40
41 42 43 45 45 46 45 41 39 37 33 30 31 29 27 28 30 25 27 25 31 31 28 27 27 24 24 27 29 25 27 25 25 25 23 19 35 36 28 32 36 36 36 36
41 41 43 44 45 46 45 39 41 41 36 35 38 36 35 33 31 30 32 29 33 31 32 32 31 27 26 26 22 33 29 32 29 27 25 34 34 34 35 35 33 33 32 33
40 42 43 44 45 45 45 40 41 39 34 35 34 32 35 37 37 37 31 31 34 35 37 35 34 29 28 23 27 31 35 35 32 33 35 34 35 34 33 32 30 30 30 30
41 42 44 45 45 45 45 41 41 39 36 28 27 32 32 35 36 37 36 34 37 37 36 33 33 29 32 28 33 32 33 34 32 32 34 34 33 35 34 30 30 29 28 27
42 43 44 45 45 46 45 42 41 40 36 29 28 32 33 34 35 35 36 35 34 32 33 32 31 31 31 32 33 29 33 29 28 27 32 33 32 34 28 27 26 25 25 25
42 43 45 45 45 46 41 34 41 41 40 34 25 30 32 34 34 34 35 35 34 37 35 32 34 35 33 29 27 30 32 32 32 29 33 33 34 33 31 25 24 22 21 21
44 45 45 45 44 44 37 33 36 42 42 34 27 26 30 35 34 33 35 38 35 36 36 34 33 32 34 30 26 29 30 30 30 31 34 30 29 28 29 25 23 23 20 19
44 45 45 45 45 43 38 40 43 41 38 37 25 25 28 39 30 32 37 34 35 36 36 36 33 35 32 25 25 25 26 28 26 27 29 31 28 25 23 23 22 21 20 19
44 44 45 44 39 35 38 44 43 42 38 29 30 24 20 38 35 34 34 33 31 35 32 31 33 28 19 24 24 22 22 22 22 26 22 25 23 21 20 20 19 19 19 18
45 43 34 30 34 44 43 39 34 35 36 36 30 30 28 33 34 33 33 34 30 28 30 31 26 19 23 24 24 23 21 20 19 20 18 19 20 20 18 17 18 18 18 17
38 32 32 39 43 38 34 30 30 32 29 32 31 31 30 36 30 32 34 31 31 25 30 27 21 17 20 22 21 20 19 18 17 17 18 19 18 18 18 16 16 15 14 13
37 39 41 39 35 32 30 28 30 27 24 27 29 32 35 34 34 31 32 30 30 24 32 22 11 18 21 20 19 18 18 17 16 16 16 16 16 16 15 14 13 13 12 12
38 35 32 32 26 24 21 21 23 24 30 32 33 32 31 33 34 32 31 26 25 31 19 10 13 19 19 18 17 15 14 14 13 13 13 13 12 12 12 10 10 10 8 9
28 25 11 19 9 12 12 23 25 27 28 32 32 30 30 31 29 29 25 28 30 20 6 4 14 18 18 18 16 14 13 12 11 9 8 9 8 7 7 6 4 4 4 5
24 21 14 10 16 18 19 21 27 27 30 31 31 29 27 23 22 19 19 14 9 11 6 5 15 18 17 16 15 13 10 7 5 3 5 3 4 6 5 5 3 4 3 4
21 18 15 18 14 14 19 22 24 27 28 29 26 20 14 16 12 11 7 14 5 3 7 14 16 11 13 12 12 9 7 5 3 3 5 5 3 4 5 6 4 2 2 1
19 15 19 11 13 10 15 19 22 27 27 12 19 11 13 15 7 5 9 -0 -1 6 11 11 11 14 11 12 13 12 11 8 7 7 9 6 5 6 7 5 7 9 7 5
Lifted_Index
8 8 8 7 7 6 6 6 6 5 4 4 4 4 4 4 4 4 4 3 3 3 3 3 3 2 2 2 2 1 2 2 2 2 1 1 1 1 2 2 2 2 2 2
8 8 8 7 7 6 6 6 6 5 4 4 4 4 4 4 4 4 3 3 3 3 3 3 3 2 2 2 2 1 1 2 2 1 1 1 1 1 1 2 2 2 2 2
8 8 7 7 6 6 6 6 6 5 4 4 4 4 3 3 3 3 3 3 3 3 3 3 3 2 2 2 1 1 1 1 1 1 1 0 0 0 1 1 1 1 1 1
8 7 7 6 6 6 7 7 6 6 5 4 4 4 3 3 3 3 3 3 3 3 3 3 3 2 2 2 1 1 1 1 1 1 1 1 0 0 1 1 1 1 1 1
7 7 6 6 6 6 7 6 6 6 6 5 5 4 3 3 3 3 3 3 3 2 2 2 2 2 2 2 1 1 1 1 1 2 2 1 1 1 1 1 1 1 1 1
7 7 6 6 6 6 6 6 6 6 6 6 5 5 4 4 4 3 3 3 2 1 1 0 1 1 2 2 2 1 1 1 2 2 2 2 1 1 1 0 0 0 1 1
7 7 6 6 6 6 6 6 6 6 5 6 6 6 5 5 5 4 3 3 2 1 0 -0 -0 0 1 1 1 1 1 1 2 2 2 2 1 0 0 0 0 0 0 0
7 7 6 6 6 6 6 6 6 6 5 6 6 6 6 6 5 4 3 2 1 1 0 -0 -0 0 0 1 1 1 1 2 2 2 2 1 1 0 -0 -0 0 0 0 0
7 7 6 6 6 6 6 6 6 6 6 6 6 6 6 6 5 4 3 2 1 1 0 0 0 0 0 0 0 0 1 1 2 2 1 1 1 0 0 0 1 1 1 1
7 7 6 6 5 5 6 6 6 6 6 6 6 6 6 6 5 4 3 2 1 1 0 0 0 0 0 0 0 0 1 1 2 2 2 2 1 1 1 1 1 2 2 2
7 7 6 6 5 5 5 6 6 6 6 6 6 6 6 6 5 4 4 2 1 1 1 0 0 0 1 0 0 1 1 1 1 2 2 2 2 1 1 2 2 2 3 3
7 7 6 5 5 4 5 5 6 6 6 6 6 6 6 6 5 5 4 3 2 1 1 1 0 0 0 0 0 1 1 1 1 1 2 2 2 1 1 2 3 3 4 4
7 7 6 5 5 4 4 5 6 6 6 6 6 6 6 6 5 5 4 3 2 2 2 2 1 1 1 0 0 1 2 2 1 1 2 2 2 1 1 2 3 4 4 4
6 6 5 5 4 3 3 4 5 6 6 5 6 6 6 6 5 5 4 3 3 2 2 2 2 1 1 1 1 1 2 2 2 1 2 2 2 2 2 2 3 4 4 4
6 5 5 4 3 3 3 3 4 5 5 5 5 6 6 5 5 4 4 3 3 3 3 2 2 1 1 1 1 1 2 2 2 2 2 2 2 3 3 3 3 4 4 4
5 5 4 3 2 2 2 3 4 5 5 5 5 5 5 5 4 3 3 3 3 3 2 2 1 1 1 1 1 1 2 2 2 2 3 3 3 3 3 3 4 4 5 5
4 4 3 3 2 2 2 3 4 4 5 5 5 5 4 3 3 3 2 2 2 2 2 1 1 1 1 1 1 1 1 2 3 3 4 4 4 4 4 4 4 5 5 5
3 3 2 2 2 3 2 3 3 4 4 4 4 4 3 3 2 2 2 2 2 1 1 1 1 2 1 1 1 1 2 2 3 4 4 4 4 5 5 5 5 5 5 6
3 2 2 2 2 2 2 2 2 3 4 3 3 3 3 2 2 2 2 1 1 1 1 2 2 2 2 1 1 2 2 3 3 4 4 4 4 5 6 6 6 6 6 7
2 2 2 2 2 2 2 1 2 2 3 3 3 3 2 2 2 1 1 1 1 1 1 2 2 2 2 2 2 3 4 5 5 4 4 4 5 5 6 7 7 8 8 8
1 1 2 2 2 2 1 1 1 2 2 2 2 2 2 2 2 1 1 1 1 1 1 1 1 1 2 3 4 5 7 7 7 7 6 6 7 7 7 8 9 10 10 10
1 1 2 2 1 1 1 1 1 2 2 2 2 2 2 2 2 1 1 1 1 1 1 1 1 2 3 5 6 8 9 9 9 9 9 9 9 9 9 10 11 11 12 12
2 1 1 1 1 1 1 1 1 1 1 2 2 2 2 2 2 1 1 1 1 1 1 1 1 2 4 7 8 9 9 10 10 10 11 11 11 12 12 12 13 14 14 15
1 1 1 1 1 1 1 1 1 1 2 2 1 2 2 2 2 1 1 1 1 1 1 1 2 4 6 8 9 10 10 10 11 11 12 12 12 13 14 15 15 16 16 16
1 1 1 1 1 1 1 1 2 2 2 2 1 2 2 2 2 2 1 1 1 1 2 3 4 7 9 10 11 11 11 12 12 13 13 13 14 14 15 16 17 17 17 17
1 1 1 1 1 1 2 2 2 2 2 2 2 2 2 2 2 2 2 2 2 2 3 5 8 9 11 11 12 12 13 13 14 14 14 15 15 15 16 16 17 17 17 17
1 2 2 2 1 1 2 2 3 3 2 2 2 2 2 2 2 2 2 2 2 3 5 8 10 11 11 12 13 13 14 14 14 15 15 15 16 16 16 16 16 17 17 17